Location: Unspecified
(43.4354°N, 0.0000°E)
Time: 12:37:36
(UTC+00:00)

Vanguard 1 Rocket - Pass Details

Date: 20 June 2019
Orbit: 651 x 4225 km, 34.3° (Epoch: 20 July)

Event Time Altitude Azimuth Distance (km) Brightness Sun altitude
Rises 22:26:38 0° 270° (W) 4,595 11.3 -19.7°
Reaches altitude 10° 22:31:01 10° 257° (WSW) 3,062 10.2 -20.0°
Enters shadow 22:35:51 21° 212° (SSW) 1,871 8.7 -20.3°
